Time,TemperatureF,DewpointF,PressureIn,WindDirection,WindDirectionDegrees,WindSpeedMPH,WindSpeedGustMPH,Humidity,HourlyPrecipIn,Conditions,Clouds,dailyrainin,SoftwareType,DateUTC
2013-01-15 00:00:00,16.3,10.6,30.74,SW,225,0.0,0.0,78,0.00,,,0.00,WUHU216HW,2013-01-15 05:00:00,
2013-01-15 00:01:00,16.3,10.6,30.74,SW,225,0.0,0.0,78,0.00,,,0.00,WUHU216HW,2013-01-15 05:01:00,
2013-01-15 00:06:00,15.9,10.3,30.74,SW,225,0.0,0.0,78,0.00,,,0.00,WUHU216HW,2013-01-15 05:06:00,
2013-01-15 00:11:00,15.8,9.8,30.74,SW,225,0.0,0.0,77,0.00,,,0.00,WUHU216HW,2013-01-15 05:11:00,
2013-01-15 00:16:00,15.6,9.6,30.74,SW,225,0.0,0.0,77,0.00,,,0.00,WUHU216HW,2013-01-15 05:16:00,
2013-01-15 00:21:00,15.6,9.6,30.74,SW,225,0.0,0.0,77,0.00,,,0.00,WUHU216HW,2013-01-15 05:21:00,
2013-01-15 00:26:00,15.8,10.1,30.74,SW,225,0.0,0.0,78,0.00,,,0.00,WUHU216HW,2013-01-15 05:26:00,
2013-01-15 00:31:00,16.3,10.6,30.74,SW,225,0.0,0.0,78,0.00,,,0.00,WUHU216HW,2013-01-15 05:31:00,
2013-01-15 00:36:00,16.5,10.7,30.74,SW,225,0.0,0.0,78,0.00,,,0.00,WUHU216HW,2013-01-15 05:36:00,
2013-01-15 00:41:00,16.8,11.4,30.74,SW,225,0.0,0.0,79,0.00,,,0.00,WUHU216HW,2013-01-15 05:41:00,
2013-01-15 00:46:00,17.2,11.7,30.74,SW,225,0.8,1.3,79,0.00,,,0.00,WUHU216HW,2013-01-15 05:46:00,
2013-01-15 00:51:00,17.4,11.9,30.73,WSW,248,3.3,3.3,79,0.00,,,0.00,WUHU216HW,2013-01-15 05:51:00,
2013-01-15 00:56:00,17.4,11.9,30.73,WSW,248,2.0,3.3,79,0.00,,,0.00,WUHU216HW,2013-01-15 05:56:00,
2013-01-15 01:01:00,17.7,12.2,30.73,WSW,248,3.8,3.8,79,0.00,,,0.00,WUHU216HW,2013-01-15 06:01:00,
2013-01-15 01:06:00,17.7,12.2,30.73,WSW,248,0.4,3.8,79,0.00,,,0.00,WUHU216HW,2013-01-15 06:06:00,
2013-01-15 01:11:00,17.9,12.4,30.73,SW,225,0.0,3.8,79,0.00,,,0.00,WUHU216HW,2013-01-15 06:11:00,
2013-01-15 01:16:00,18.1,12.6,30.74,SW,225,2.6,2.6,79,0.00,,,0.00,WUHU216HW,2013-01-15 06:16:00,
2013-01-15 01:21:00,18.1,12.3,30.74,WSW,248,0.0,2.6,78,0.00,,,0.00,WUHU216HW,2013-01-15 06:21:00,
2013-01-15 01:26:00,18.1,12.3,30.74,WSW,248,1.5,2.6,78,0.00,,,0.00,WUHU216HW,2013-01-15 06:26:00,
2013-01-15 01:31:00,18.3,12.5,30.74,WSW,248,0.0,1.5,78,0.00,,,0.00,WUHU216HW,2013-01-15 06:31:00,
2013-01-15 01:36:00,18.3,12.5,30.74,SW,225,0.0,2.6,78,0.00,,,0.00,WUHU216HW,2013-01-15 06:36:00,
2013-01-15 01:41:00,18.3,12.5,30.74,WSW,248,3.3,3.3,78,0.00,,,0.00,WUHU216HW,2013-01-15 06:41:00,
2013-01-15 01:46:00,18.3,12.5,30.75,WSW,248,3.8,3.8,78,0.00,,,0.00,WUHU216HW,2013-01-15 06:46:00,
2013-01-15 01:51:00,18.3,12.5,30.75,WSW,248,0.2,3.8,78,0.00,,,0.00,WUHU216HW,2013-01-15 06:51:00,
2013-01-15 01:56:00,18.3,12.5,30.75,WSW,248,4.0,4.0,78,0.00,,,0.00,WUHU216HW,2013-01-15 06:56:00,
2013-01-15 02:01:00,18.3,12.5,30.75,WSW,248,0.8,4.0,78,0.00,,,0.00,WUHU216HW,2013-01-15 07:01:00,
2013-01-15 02:06:00,18.3,12.5,30.75,WSW,248,0.0,2.6,78,0.00,,,0.00,WUHU216HW,2013-01-15 07:06:00,
2013-01-15 02:11:00,18.3,12.5,30.75,WSW,248,2.0,2.0,78,0.00,,,0.00,WUHU216HW,2013-01-15 07:11:00,
2013-01-15 02:16:00,18.3,12.5,30.75,WSW,248,0.0,2.0,78,0.00,,,0.00,WUHU216HW,2013-01-15 07:16:00,
2013-01-15 02:21:00,18.3,12.5,30.75,SW,225,0.0,1.1,78,0.00,,,0.00,WUHU216HW,2013-01-15 07:21:00,
2013-01-15 02:26:00,18.3,12.5,30.76,SW,225,1.7,1.7,78,0.00,,,0.00,WUHU216HW,2013-01-15 07:26:00,
2013-01-15 02:31:00,18.1,12.3,30.76,WSW,248,0.0,3.8,78,0.00,,,0.00,WUHU216HW,2013-01-15 07:31:00,
2013-01-15 02:36:00,18.1,12.3,30.76,WSW,248,1.7,3.8,78,0.00,,,0.00,WUHU216HW,2013-01-15 07:36:00,
2013-01-15 02:41:00,18.1,12.3,30.76,SW,225,0.0,2.4,78,0.00,,,0.00,WUHU216HW,2013-01-15 07:41:00,
2013-01-15 02:46:00,18.1,12.3,30.76,WSW,248,0.0,2.4,78,0.00,,,0.00,WUHU216HW,2013-01-15 07:46:00,
2013-01-15 02:51:00,17.9,12.1,30.76,SW,225,0.0,0.0,78,0.00,,,0.00,WUHU216HW,2013-01-15 07:51:00,
2013-01-15 02:56:00,17.9,12.1,30.76,WSW,248,0.0,0.0,78,0.00,,,0.00,WUHU216HW,2013-01-15 07:56:00,
2013-01-15 03:01:00,17.9,12.1,30.76,WSW,248,0.0,0.0,78,0.00,,,0.00,WUHU216HW,2013-01-15 08:01:00,
2013-01-15 03:06:00,17.7,11.9,30.75,SW,225,0.0,0.0,78,0.00,,,0.00,WUHU216HW,2013-01-15 08:06:00,
2013-01-15 03:11:00,17.7,11.9,30.76,SW,225,0.0,0.0,78,0.00,,,0.00,WUHU216HW,2013-01-15 08:11:00,
2013-01-15 03:16:00,17.7,11.9,30.75,SW,225,0.0,0.0,78,0.00,,,0.00,WUHU216HW,2013-01-15 08:16:00,
2013-01-15 03:21:00,17.4,11.6,30.75,SW,225,0.0,0.0,78,0.00,,,0.00,WUHU216HW,2013-01-15 08:21:00,
2013-01-15 03:26:00,17.2,11.4,30.75,SW,225,0.0,0.0,78,0.00,,,0.00,WUHU216HW,2013-01-15 08:26:00,
2013-01-15 03:31:00,16.8,11.1,30.75,SW,225,0.2,0.2,78,0.00,,,0.00,WUHU216HW,2013-01-15 08:31:00,
2013-01-15 03:36:00,16.8,11.1,30.75,SW,225,0.0,0.2,78,0.00,,,0.00,WUHU216HW,2013-01-15 08:36:00,
2013-01-15 03:41:00,16.8,11.1,30.75,SW,225,2.4,2.4,78,0.00,,,0.00,WUHU216HW,2013-01-15 08:41:00,
2013-01-15 03:46:00,16.8,11.1,30.75,WSW,248,1.3,2.4,78,0.00,,,0.00,WUHU216HW,2013-01-15 08:46:00,
2013-01-15 03:51:00,16.8,11.1,30.75,WSW,248,0.0,1.3,78,0.00,,,0.00,WUHU216HW,2013-01-15 08:51:00,
2013-01-15 03:56:00,16.8,11.4,30.75,WSW,248,0.0,1.3,79,0.00,,,0.00,WUHU216HW,2013-01-15 08:56:00,
2013-01-15 04:01:00,17.0,11.5,30.75,WSW,248,0.0,0.0,79,0.00,,,0.00,WUHU216HW,2013-01-15 09:01:00,
2013-01-15 04:06:00,16.8,11.1,30.75,WSW,248,0.0,0.0,78,0.00,,,0.00,WUHU216HW,2013-01-15 09:06:00,
2013-01-15 04:11:00,16.7,10.9,30.75,WSW,248,0.0,0.0,78,0.00,,,0.00,WUHU216HW,2013-01-15 09:11:00,
2013-01-15 04:16:00,16.3,10.6,30.75,WSW,248,0.0,0.0,78,0.00,,,0.00,WUHU216HW,2013-01-15 09:16:00,
2013-01-15 04:21:00,16.1,10.4,30.75,SW,225,0.0,0.0,78,0.00,,,0.00,WUHU216HW,2013-01-15 09:21:00,
2013-01-15 04:26:00,15.9,10.3,30.75,SW,225,0.0,0.0,78,0.00,,,0.00,WUHU216HW,2013-01-15 09:26:00,
2013-01-15 04:31:00,15.6,9.9,30.75,SW,225,0.0,0.0,78,0.00,,,0.00,WUHU216HW,2013-01-15 09:31:00,
2013-01-15 04:36:00,15.6,9.9,30.75,SW,225,0.0,0.0,78,0.00,,,0.00,WUHU216HW,2013-01-15 09:36:00,
2013-01-15 04:41:00,15.4,9.7,30.75,SW,225,0.0,0.0,78,0.00,,,0.00,WUHU216HW,2013-01-15 09:41:00,
2013-01-15 04:46:00,15.0,9.4,30.75,SW,225,0.0,0.0,78,0.00,,,0.00,WUHU216HW,2013-01-15 09:46:00,
2013-01-15 04:51:00,15.0,9.4,30.75,SW,225,0.0,0.0,78,0.00,,,0.00,WUHU216HW,2013-01-15 09:51:00,
2013-01-15 04:56:00,14.9,9.2,30.74,SW,225,0.0,0.0,78,0.00,,,0.00,WUHU216HW,2013-01-15 09:56:00,
2013-01-15 05:01:00,14.7,9.0,30.74,SW,225,0.0,0.0,78,0.00,,,0.00,WUHU216HW,2013-01-15 10:01:00,
2013-01-15 05:06:00,14.7,9.0,30.74,SW,225,0.0,0.0,78,0.00,,,0.00,WUHU216HW,2013-01-15 10:06:00,
2013-01-15 05:11:00,14.5,8.9,30.74,SW,225,0.0,0.0,78,0.00,,,0.00,WUHU216HW,2013-01-15 10:11:00,
2013-01-15 05:16:00,14.5,9.1,30.75,SW,225,0.0,0.0,79,0.00,,,0.00,WUHU216HW,2013-01-15 10:16:00,
2013-01-15 05:21:00,14.3,9.0,30.74,SW,225,0.0,0.0,79,0.00,,,0.00,WUHU216HW,2013-01-15 10:21:00,
2013-01-15 05:26:00,14.3,9.0,30.74,SW,225,0.0,0.0,79,0.00,,,0.00,WUHU216HW,2013-01-15 10:26:00,
2013-01-15 05:31:00,14.1,9.0,30.75,SW,225,0.0,0.0,79,0.00,,,0.00,WUHU216HW,2013-01-15 10:31:00,
2013-01-15 05:36:00,14.1,8.5,30.75,SW,225,0.0,0.0,78,0.00,,,0.00,WUHU216HW,2013-01-15 10:36:00,
2013-01-15 05:41:00,14.1,8.8,30.75,SW,225,0.0,0.0,79,0.00,,,0.00,WUHU216HW,2013-01-15 10:41:00,
2013-01-15 05:46:00,14.1,8.8,30.75,SW,225,0.0,0.0,79,0.00,,,0.00,WUHU216HW,2013-01-15 10:46:00,
2013-01-15 05:51:00,14.1,8.8,30.75,SW,225,0.0,0.0,79,0.00,,,0.00,WUHU216HW,2013-01-15 10:51:00,
2013-01-15 05:56:00,14.1,8.8,30.75,SW,225,0.0,0.0,79,0.00,,,0.00,WUHU216HW,2013-01-15 10:56:00,
2013-01-15 06:01:00,14.1,8.8,30.75,SW,225,0.0,0.0,79,0.00,,,0.00,WUHU216HW,2013-01-15 11:01:00,
2013-01-15 06:06:00,13.8,8.4,30.75,SW,225,0.0,0.0,79,0.00,,,0.00,WUHU216HW,2013-01-15 11:06:00,
2013-01-15 06:11:00,13.8,8.4,30.76,SW,225,0.0,0.0,79,0.00,,,0.00,WUHU216HW,2013-01-15 11:11:00,
2013-01-15 06:16:00,13.8,8.4,30.76,SW,225,0.0,0.0,79,0.00,,,0.00,WUHU216HW,2013-01-15 11:16:00,
2013-01-15 06:21:00,13.8,8.4,30.75,SW,225,0.0,0.0,79,0.00,,,0.00,WUHU216HW,2013-01-15 11:21:00,
2013-01-15 06:26:00,13.8,8.4,30.76,SW,225,0.0,0.0,79,0.00,,,0.00,WUHU216HW,2013-01-15 11:26:00,
2013-01-15 06:31:00,13.8,8.4,30.76,SW,225,0.0,0.0,79,0.00,,,0.00,WUHU216HW,2013-01-15 11:31:00,
2013-01-15 06:36:00,13.8,8.4,30.76,SW,225,0.0,0.0,79,0.00,,,0.00,WUHU216HW,2013-01-15 11:36:00,
2013-01-15 06:41:00,13.8,8.4,30.76,SW,225,0.0,0.0,79,0.00,,,0.00,WUHU216HW,2013-01-15 11:41:00,
2013-01-15 06:46:00,13.8,8.4,30.76,SW,225,0.0,0.0,79,0.00,,,0.00,WUHU216HW,2013-01-15 11:46:00,
2013-01-15 06:51:00,13.8,8.4,30.76,SW,225,0.0,0.0,79,0.00,,,0.00,WUHU216HW,2013-01-15 11:51:00,
2013-01-15 06:56:00,14.0,8.6,30.76,SW,225,0.0,0.0,79,0.00,,,0.00,WUHU216HW,2013-01-15 11:56:00,
2013-01-15 07:01:00,13.8,8.4,30.76,SW,225,0.0,0.0,79,0.00,,,0.00,WUHU216HW,2013-01-15 12:01:00,
2013-01-15 07:06:00,13.8,8.4,30.76,SW,225,0.0,0.0,79,0.00,,,0.00,WUHU216HW,2013-01-15 12:06:00,
2013-01-15 07:11:00,13.8,8.4,30.76,SW,225,0.0,0.0,79,0.00,,,0.00,WUHU216HW,2013-01-15 12:11:00,
2013-01-15 07:16:00,13.8,8.4,30.76,SW,225,0.0,0.0,79,0.00,,,0.00,WUHU216HW,2013-01-15 12:16:00,
2013-01-15 07:21:00,13.8,8.4,30.76,SW,225,0.0,0.0,79,0.00,,,0.00,WUHU216HW,2013-01-15 12:21:00,
2013-01-15 07:26:00,13.8,8.4,30.76,SW,225,0.0,0.0,79,0.00,,,0.00,WUHU216HW,2013-01-15 12:26:00,
2013-01-15 07:31:00,13.8,8.4,30.76,SW,225,0.0,0.0,79,0.00,,,0.00,WUHU216HW,2013-01-15 12:31:00,
2013-01-15 07:36:00,13.8,8.4,30.77,SW,225,0.0,0.0,79,0.00,,,0.00,WUHU216HW,2013-01-15 12:36:00,
2013-01-15 07:41:00,13.8,8.4,30.77,SW,225,0.0,0.0,79,0.00,,,0.00,WUHU216HW,2013-01-15 12:41:00,
2013-01-15 07:46:00,13.8,8.4,30.77,SW,225,0.0,0.0,79,0.00,,,0.00,WUHU216HW,2013-01-15 12:46:00,
2013-01-15 07:51:00,13.8,8.4,30.76,SW,225,0.0,0.0,79,0.00,,,0.00,WUHU216HW,2013-01-15 12:51:00,
2013-01-15 07:56:00,13.8,8.4,30.76,SW,225,0.0,0.0,79,0.00,,,0.00,WUHU216HW,2013-01-15 12:56:00,
2013-01-15 08:01:00,13.6,8.3,30.76,SW,225,0.0,0.0,79,0.00,,,0.00,WUHU216HW,2013-01-15 13:01:00,
2013-01-15 08:06:00,13.6,8.3,30.77,SW,225,0.0,0.0,79,0.00,,,0.00,WUHU216HW,2013-01-15 13:06:00,
2013-01-15 08:11:00,13.2,7.9,30.77,SW,225,0.0,0.0,79,0.00,,,0.00,WUHU216HW,2013-01-15 13:11:00,
2013-01-15 08:16:00,13.2,7.9,30.77,SW,225,0.0,0.0,79,0.00,,,0.00,WUHU216HW,2013-01-15 13:16:00,
2013-01-15 08:21:00,13.1,7.7,30.77,SW,225,0.0,0.0,79,0.00,,,0.00,WUHU216HW,2013-01-15 13:21:00,
2013-01-15 08:26:00,13.1,7.7,30.77,SW,225,0.0,0.0,79,0.00,,,0.00,WUHU216HW,2013-01-15 13:26:00,
2013-01-15 08:31:00,12.9,7.5,30.77,SW,225,0.0,0.0,79,0.00,,,0.00,WUHU216HW,2013-01-15 13:31:00,
2013-01-15 08:36:00,12.9,7.5,30.77,SW,225,0.0,0.0,79,0.00,,,0.00,WUHU216HW,2013-01-15 13:36:00,
2013-01-15 08:41:00,12.9,7.5,30.77,SW,225,0.0,0.0,79,0.00,,,0.00,WUHU216HW,2013-01-15 13:41:00,
2013-01-15 08:46:00,12.7,7.4,30.77,SW,225,0.0,0.0,79,0.00,,,0.00,WUHU216HW,2013-01-15 13:46:00,
2013-01-15 08:51:00,12.7,7.4,30.77,SW,225,0.0,0.0,79,0.00,,,0.00,WUHU216HW,2013-01-15 13:51:00,
2013-01-15 08:56:00,12.9,7.5,30.77,SW,225,0.0,0.0,79,0.00,,,0.00,WUHU216HW,2013-01-15 13:56:00,
2013-01-15 09:01:00,13.1,7.9,30.78,SW,225,0.0,0.0,79,0.00,,,0.00,WUHU216HW,2013-01-15 14:01:00,
2013-01-15 09:06:00,13.2,7.9,30.78,SW,225,0.0,0.0,79,0.00,,,0.00,WUHU216HW,2013-01-15 14:06:00,
2013-01-15 09:11:00,13.6,8.3,30.78,SW,225,0.0,0.0,79,0.00,,,0.00,WUHU216HW,2013-01-15 14:11:00,
2013-01-15 09:16:00,14.1,9.1,30.78,SW,225,0.0,0.0,80,0.00,,,0.00,WUHU216HW,2013-01-15 14:16:00,
2013-01-15 09:21:00,14.5,9.5,30.78,SW,225,0.0,0.0,80,0.00,,,0.00,WUHU216HW,2013-01-15 14:21:00,
2013-01-15 09:26:00,14.7,9.6,30.78,SW,225,0.0,0.0,80,0.00,,,0.00,WUHU216HW,2013-01-15 14:26:00,
2013-01-15 09:31:00,15.2,10.2,30.77,SW,225,0.0,0.0,80,0.00,,,0.00,WUHU216HW,2013-01-15 14:31:00,
2013-01-15 09:36:00,15.9,10.9,30.78,SW,225,0.0,0.0,80,0.00,,,0.00,WUHU216HW,2013-01-15 14:36:00,
2013-01-15 09:41:00,16.3,11.2,30.78,SW,225,0.0,0.0,80,0.00,,,0.00,WUHU216HW,2013-01-15 14:41:00,
2013-01-15 09:46:00,16.5,11.2,30.78,SW,225,0.0,0.0,80,0.00,,,0.00,WUHU216HW,2013-01-15 14:46:00,
2013-01-15 09:51:00,16.8,11.7,30.78,SW,225,0.0,0.0,80,0.00,,,0.00,WUHU216HW,2013-01-15 14:51:00,
2013-01-15 09:56:00,17.2,12.0,30.77,SW,225,0.0,0.0,80,0.00,,,0.00,WUHU216HW,2013-01-15 14:56:00,
2013-01-15 10:01:00,17.4,12.2,30.77,SW,225,0.0,0.0,80,0.00,,,0.00,WUHU216HW,2013-01-15 15:01:00,
2013-01-15 10:06:00,17.7,12.5,30.77,SW,225,0.0,0.0,80,0.00,,,0.00,WUHU216HW,2013-01-15 15:06:00,
2013-01-15 10:11:00,17.9,12.7,30.77,SW,225,0.0,0.0,80,0.00,,,0.00,WUHU216HW,2013-01-15 15:11:00,
2013-01-15 10:16:00,18.3,13.1,30.77,WSW,248,0.0,0.0,80,0.00,,,0.00,WUHU216HW,2013-01-15 15:16:00,
2013-01-15 10:21:00,18.8,13.9,30.77,WSW,248,0.0,0.0,81,0.00,,,0.00,WUHU216HW,2013-01-15 15:21:00,
2013-01-15 10:26:00,19.2,14.2,30.77,WSW,248,0.0,0.0,81,0.00,,,0.00,WUHU216HW,2013-01-15 15:26:00,
2013-01-15 10:31:00,19.5,14.6,30.78,WSW,248,0.0,0.0,81,0.00,,,0.00,WUHU216HW,2013-01-15 15:31:00,
2013-01-15 10:36:00,19.9,14.7,30.78,WSW,248,0.0,0.0,80,0.00,,,0.00,WUHU216HW,2013-01-15 15:36:00,
2013-01-15 10:41:00,20.1,14.9,30.78,WSW,248,0.0,0.0,80,0.00,,,0.00,WUHU216HW,2013-01-15 15:41:00,
2013-01-15 10:46:00,20.8,15.6,30.78,WSW,248,0.6,0.6,80,0.00,,,0.00,WUHU216HW,2013-01-15 15:46:00,
2013-01-15 10:51:00,21.0,15.4,30.78,WSW,248,0.0,0.6,79,0.00,,,0.00,WUHU216HW,2013-01-15 15:51:00,
2013-01-15 10:56:00,21.3,15.8,30.78,WSW,248,0.0,0.8,79,0.00,,,0.00,WUHU216HW,2013-01-15 15:56:00,
2013-01-15 11:01:00,21.9,16.3,30.77,WSW,248,0.0,0.8,79,0.00,,,0.00,WUHU216HW,2013-01-15 16:01:00,
2013-01-15 11:06:00,22.8,16.9,30.77,WSW,248,3.5,5.5,78,0.00,,,0.00,WUHU216HW,2013-01-15 16:06:00,
2013-01-15 11:11:00,23.3,17.2,30.78,SW,225,4.0,5.5,77,0.00,,,0.00,WUHU216HW,2013-01-15 16:11:00,
2013-01-15 11:16:00,24.4,17.9,30.78,SW,225,0.0,4.0,76,0.00,,,0.00,WUHU216HW,2013-01-15 16:16:00,
2013-01-15 11:21:00,25.1,18.6,30.77,SW,225,0.0,0.0,76,0.00,,,0.00,WUHU216HW,2013-01-15 16:21:00,
2013-01-15 11:26:00,25.7,18.8,30.77,SW,225,0.0,0.0,75,0.00,,,0.00,WUHU216HW,2013-01-15 16:26:00,
2013-01-15 11:31:00,26.2,18.6,30.77,SW,225,0.0,0.0,73,0.00,,,0.00,WUHU216HW,2013-01-15 16:31:00,
2013-01-15 11:36:00,26.2,18.3,30.76,SW,225,0.0,0.0,72,0.00,,,0.00,WUHU216HW,2013-01-15 16:36:00,
2013-01-15 11:41:00,26.2,18.3,30.76,SW,225,0.0,0.0,72,0.00,,,0.00,WUHU216HW,2013-01-15 16:41:00,
2013-01-15 11:46:00,26.4,18.2,30.76,SW,225,0.0,0.0,71,0.00,,,0.00,WUHU216HW,2013-01-15 16:46:00,
2013-01-15 11:51:00,26.6,18.4,30.76,WSW,248,2.0,3.3,71,0.00,,,0.00,WUHU216HW,2013-01-15 16:51:00,
2013-01-15 11:56:00,26.9,18.8,30.76,WSW,248,0.4,3.3,71,0.00,,,0.00,WUHU216HW,2013-01-15 16:56:00,
2013-01-15 12:01:00,27.5,19.1,30.76,WSW,248,0.0,2.0,70,0.00,,,0.00,WUHU216HW,2013-01-15 17:01:00,
2013-01-15 12:06:00,28.0,19.5,30.76,WSW,248,0.0,0.0,70,0.00,,,0.00,WUHU216HW,2013-01-15 17:06:00,
2013-01-15 12:11:00,28.2,19.7,30.76,SW,225,0.0,5.3,70,0.00,,,0.00,WUHU216HW,2013-01-15 17:11:00,
2013-01-15 12:16:00,28.2,19.5,30.75,WSW,248,0.8,5.3,69,0.00,,,0.00,WUHU216HW,2013-01-15 17:16:00,
2013-01-15 12:21:00,28.7,19.5,30.75,WSW,248,0.0,0.8,68,0.00,,,0.00,WUHU216HW,2013-01-15 17:21:00,
2013-01-15 12:26:00,28.7,19.5,30.75,WSW,248,0.0,0.8,68,0.00,,,0.00,WUHU216HW,2013-01-15 17:26:00,
2013-01-15 12:31:00,28.7,19.5,30.75,SW,225,1.7,1.7,68,0.00,,,0.00,WUHU216HW,2013-01-15 17:31:00,
2013-01-15 12:36:00,28.7,19.5,30.74,WSW,248,0.0,1.7,68,0.00,,,0.00,WUHU216HW,2013-01-15 17:36:00,
2013-01-15 12:41:00,28.5,19.0,30.74,WSW,248,2.6,2.6,67,0.00,,,0.00,WUHU216HW,2013-01-15 17:41:00,
2013-01-15 12:46:00,28.5,19.0,30.73,SSE,158,0.0,2.6,67,0.00,,,0.00,WUHU216HW,2013-01-15 17:46:00,
2013-01-15 12:51:00,28.5,19.0,30.73,SW,225,0.0,0.0,67,0.00,,,0.00,WUHU216HW,2013-01-15 17:51:00,
2013-01-15 12:56:00,28.5,19.0,30.72,SW,225,2.9,2.9,67,0.00,,,0.00,WUHU216HW,2013-01-15 17:56:00,
2013-01-15 13:01:00,28.4,18.5,30.72,WSW,248,0.0,2.9,66,0.00,,,0.00,WUHU216HW,2013-01-15 18:01:00,
2013-01-15 13:06:00,28.2,18.3,30.71,SW,225,0.0,2.4,66,0.00,,,0.00,WUHU216HW,2013-01-15 18:06:00,
2013-01-15 13:11:00,28.2,18.6,30.70,SW,225,0.0,0.0,67,0.00,,,0.00,WUHU216HW,2013-01-15 18:11:00,
2013-01-15 13:16:00,28.2,18.3,30.69,SW,225,0.0,0.0,66,0.00,,,0.00,WUHU216HW,2013-01-15 18:16:00,
2013-01-15 13:21:00,28.4,18.5,30.69,West,270,0.0,0.0,66,0.00,,,0.00,WUHU216HW,2013-01-15 18:21:00,
2013-01-15 13:26:00,28.4,18.5,30.68,WSW,248,0.0,0.0,66,0.00,,,0.00,WUHU216HW,2013-01-15 18:26:00,
2013-01-15 13:31:00,28.5,18.6,30.69,SW,225,0.0,2.4,66,0.00,,,0.00,WUHU216HW,2013-01-15 18:31:00,
2013-01-15 13:36:00,28.5,18.6,30.68,SW,225,0.0,2.4,66,0.00,,,0.00,WUHU216HW,2013-01-15 18:36:00,
2013-01-15 13:41:00,28.5,18.3,30.68,SW,225,0.0,2.4,65,0.00,,,0.00,WUHU216HW,2013-01-15 18:41:00,
2013-01-15 13:46:00,28.5,18.3,30.69,SW,225,2.0,2.0,65,0.00,,,0.00,WUHU216HW,2013-01-15 18:46:00,
2013-01-15 13:51:00,28.5,18.3,30.68,SW,225,0.0,2.0,65,0.00,,,0.00,WUHU216HW,2013-01-15 18:51:00,
2013-01-15 13:56:00,28.4,18.1,30.69,SW,225,1.7,2.0,65,0.00,,,0.00,WUHU216HW,2013-01-15 18:56:00,
2013-01-15 14:01:00,28.5,18.3,30.69,SW,225,0.0,3.1,65,0.00,,,0.00,WUHU216HW,2013-01-15 19:01:00,
2013-01-15 14:06:00,28.5,18.3,30.68,WSW,248,6.0,6.0,65,0.00,,,0.00,WUHU216HW,2013-01-15 19:06:00,
2013-01-15 14:11:00,28.5,18.3,30.69,SW,225,0.0,6.0,65,0.00,,,0.00,WUHU216HW,2013-01-15 19:11:00,
2013-01-15 14:16:00,28.4,18.1,30.69,SW,225,2.0,6.0,65,0.00,,,0.00,WUHU216HW,2013-01-15 19:16:00,
2013-01-15 14:21:00,28.2,17.6,30.69,SW,225,0.6,3.3,64,0.00,,,0.00,WUHU216HW,2013-01-15 19:21:00,
2013-01-15 14:26:00,28.2,17.9,30.69,SW,225,1.5,3.1,65,0.00,,,0.00,WUHU216HW,2013-01-15 19:26:00,
2013-01-15 14:31:00,28.0,17.7,30.68,WSW,248,2.6,5.3,65,0.00,,,0.00,WUHU216HW,2013-01-15 19:31:00,
2013-01-15 14:36:00,28.2,17.9,30.69,WSW,248,2.6,5.3,65,0.00,,,0.00,WUHU216HW,2013-01-15 19:36:00,
2013-01-15 14:41:00,28.2,17.9,30.69,WSW,248,3.8,4.0,65,0.00,,,0.00,WUHU216HW,2013-01-15 19:41:00,
2013-01-15 14:46:00,28.2,17.9,30.68,WSW,248,5.3,8.5,65,0.00,,,0.00,WUHU216HW,2013-01-15 19:46:00,
2013-01-15 14:51:00,28.2,17.9,30.68,SW,225,2.4,8.5,65,0.00,,,0.00,WUHU216HW,2013-01-15 19:51:00,
2013-01-15 14:56:00,28.2,17.9,30.68,SW,225,0.6,5.3,65,0.00,,,0.00,WUHU216HW,2013-01-15 19:56:00,
2013-01-15 15:01:00,28.2,17.9,30.68,SW,225,3.5,3.5,65,0.00,,,0.00,WUHU216HW,2013-01-15 20:01:00,
2013-01-15 15:06:00,28.2,17.9,30.67,SW,225,0.0,4.0,65,0.00,,,0.00,WUHU216HW,2013-01-15 20:06:00,
2013-01-15 15:11:00,28.2,17.9,30.67,WSW,248,6.2,6.2,65,0.00,,,0.00,WUHU216HW,2013-01-15 20:11:00,
2013-01-15 15:16:00,28.2,17.9,30.67,SW,225,4.2,6.2,65,0.00,,,0.00,WUHU216HW,2013-01-15 20:16:00,
2013-01-15 15:21:00,28.0,17.7,30.67,SW,225,0.8,5.3,65,0.00,,,0.00,WUHU216HW,2013-01-15 20:21:00,
2013-01-15 15:26:00,28.0,17.7,30.67,SW,225,2.2,4.2,65,0.00,,,0.00,WUHU216HW,2013-01-15 20:26:00,
2013-01-15 15:31:00,28.2,17.9,30.67,SW,225,4.0,4.0,65,0.00,,,0.00,WUHU216HW,2013-01-15 20:31:00,
2013-01-15 15:36:00,28.2,17.9,30.67,SW,225,2.4,4.0,65,0.00,,,0.00,WUHU216HW,2013-01-15 20:36:00,
2013-01-15 15:41:00,28.2,17.9,30.67,SW,225,4.2,4.2,65,0.00,,,0.00,WUHU216HW,2013-01-15 20:41:00,
2013-01-15 15:46:00,28.2,17.9,30.67,SW,225,2.9,4.2,65,0.00,,,0.00,WUHU216HW,2013-01-15 20:46:00,
2013-01-15 15:51:00,28.2,17.9,30.66,SW,225,2.0,4.0,65,0.00,,,0.00,WUHU216HW,2013-01-15 20:51:00,
2013-01-15 15:56:00,28.2,17.9,30.66,SW,225,4.0,4.0,65,0.00,,,0.00,WUHU216HW,2013-01-15 20:56:00,
2013-01-15 16:01:00,28.0,17.7,30.65,WSW,248,2.9,4.0,65,0.00,,,0.00,WUHU216HW,2013-01-15 21:01:00,
2013-01-15 16:06:00,28.0,17.7,30.65,SW,225,0.0,3.5,65,0.00,,,0.00,WUHU216HW,2013-01-15 21:06:00,
2013-01-15 16:11:00,28.0,17.7,30.66,SW,225,0.0,2.9,65,0.00,,,0.00,WUHU216HW,2013-01-15 21:11:00,
2013-01-15 16:16:00,27.8,17.6,30.66,SW,225,0.0,0.0,65,0.00,,,0.00,WUHU216HW,2013-01-15 21:16:00,
2013-01-15 16:21:00,28.0,17.7,30.65,SW,225,0.0,0.0,65,0.00,,,0.00,WUHU216HW,2013-01-15 21:21:00,
2013-01-15 16:26:00,28.0,18.1,30.66,WSW,248,0.0,0.0,66,0.00,,,0.00,WUHU216HW,2013-01-15 21:26:00,
2013-01-15 16:31:00,27.8,17.9,30.65,SSE,158,0.0,0.0,66,0.00,,,0.00,WUHU216HW,2013-01-15 21:31:00,
2013-01-15 16:36:00,27.6,17.7,30.66,SSE,158,0.0,0.0,66,0.00,,,0.00,WUHU216HW,2013-01-15 21:36:00,
2013-01-15 16:41:00,27.6,17.7,30.66,SSE,158,0.0,0.0,66,0.00,,,0.00,WUHU216HW,2013-01-15 21:41:00,
2013-01-15 16:46:00,27.6,18.1,30.66,SW,225,0.0,0.0,67,0.00,,,0.00,WUHU216HW,2013-01-15 21:46:00,
2013-01-15 16:51:00,27.6,18.1,30.65,SW,225,0.0,0.0,67,0.00,,,0.00,WUHU216HW,2013-01-15 21:51:00,
2013-01-15 16:56:00,27.5,17.9,30.65,SW,225,0.0,0.0,67,0.00,,,0.00,WUHU216HW,2013-01-15 21:56:00,
2013-01-15 17:01:00,27.3,17.7,30.65,SW,225,0.0,0.0,67,0.00,,,0.00,WUHU216HW,2013-01-15 22:01:00,
2013-01-15 17:06:00,27.1,17.6,30.65,SW,225,0.0,0.0,67,0.00,,,0.00,WUHU216HW,2013-01-15 22:06:00,
2013-01-15 17:11:00,27.1,17.6,30.65,WSW,248,0.0,0.0,67,0.00,,,0.00,WUHU216HW,2013-01-15 22:11:00,
2013-01-15 17:16:00,26.9,17.4,30.64,WSW,248,0.0,0.0,67,0.00,,,0.00,WUHU216HW,2013-01-15 22:16:00,
2013-01-15 17:21:00,26.9,17.4,30.64,SW,225,0.0,0.0,67,0.00,,,0.00,WUHU216HW,2013-01-15 22:21:00,
2013-01-15 17:26:00,26.7,17.2,30.65,SW,225,0.0,0.0,67,0.00,,,0.00,WUHU216HW,2013-01-15 22:26:00,
2013-01-15 17:31:00,26.6,17.4,30.64,SW,225,0.0,0.0,68,0.00,,,0.00,WUHU216HW,2013-01-15 22:31:00,
2013-01-15 17:36:00,26.4,17.2,30.64,SW,225,0.0,0.0,68,0.00,,,0.00,WUHU216HW,2013-01-15 22:36:00,
2013-01-15 17:41:00,26.4,17.2,30.64,SW,225,0.0,0.0,68,0.00,,,0.00,WUHU216HW,2013-01-15 22:41:00,
2013-01-15 17:46:00,26.2,17.0,30.64,South,180,0.0,0.0,68,0.00,,,0.00,WUHU216HW,2013-01-15 22:46:00,
2013-01-15 17:51:00,26.0,16.8,30.65,South,180,0.0,0.0,68,0.00,,,0.00,WUHU216HW,2013-01-15 22:51:00,
2013-01-15 17:56:00,25.8,17.0,30.64,South,180,0.0,0.0,69,0.00,,,0.00,WUHU216HW,2013-01-15 22:56:00,
2013-01-15 18:01:00,25.7,16.8,30.64,South,180,0.0,0.0,69,0.00,,,0.00,WUHU216HW,2013-01-15 23:01:00,
2013-01-15 18:06:00,25.7,16.8,30.64,South,180,0.0,0.0,69,0.00,,,0.00,WUHU216HW,2013-01-15 23:06:00,
2013-01-15 18:11:00,25.5,16.7,30.64,South,180,0.0,0.0,69,0.00,,,0.00,WUHU216HW,2013-01-15 23:11:00,
2013-01-15 18:16:00,25.3,16.5,30.64,South,180,0.0,0.0,69,0.00,,,0.00,WUHU216HW,2013-01-15 23:16:00,
2013-01-15 18:21:00,25.3,16.5,30.64,South,180,0.0,0.0,69,0.00,,,0.00,WUHU216HW,2013-01-15 23:21:00,
2013-01-15 18:26:00,25.1,16.7,30.64,South,180,0.0,0.0,70,0.00,,,0.00,WUHU216HW,2013-01-15 23:26:00,
2013-01-15 18:31:00,24.8,16.3,30.64,South,180,0.0,0.0,70,0.00,,,0.00,WUHU216HW,2013-01-15 23:31:00,
2013-01-15 18:36:00,24.6,16.1,30.64,South,180,0.0,0.0,70,0.00,,,0.00,WUHU216HW,2013-01-15 23:36:00,
2013-01-15 18:41:00,24.4,16.0,30.64,South,180,0.0,0.0,70,0.00,,,0.00,WUHU216HW,2013-01-15 23:41:00,
2013-01-15 18:46:00,24.0,15.9,30.63,South,180,0.0,0.0,71,0.00,,,0.00,WUHU216HW,2013-01-15 23:46:00,
2013-01-15 18:51:00,24.0,15.9,30.63,South,180,0.0,0.0,71,0.00,,,0.00,WUHU216HW,2013-01-15 23:51:00,
2013-01-15 18:56:00,23.9,15.8,30.63,South,180,0.0,0.0,71,0.00,,,0.00,WUHU216HW,2013-01-15 23:56:00,
2013-01-15 19:01:00,23.7,15.6,30.63,South,180,0.0,0.0,71,0.00,,,0.00,WUHU216HW,2013-01-16 00:01:00,
2013-01-15 19:06:00,23.5,15.5,30.63,South,180,0.0,0.0,71,0.00,,,0.00,WUHU216HW,2013-01-16 00:06:00,
2013-01-15 19:11:00,23.5,15.5,30.63,South,180,0.0,0.0,71,0.00,,,0.00,WUHU216HW,2013-01-16 00:11:00,
2013-01-15 19:16:00,23.3,15.6,30.63,South,180,0.0,0.0,72,0.00,,,0.00,WUHU216HW,2013-01-16 00:16:00,
2013-01-15 19:21:00,23.1,15.4,30.63,South,180,0.0,0.0,72,0.00,,,0.00,WUHU216HW,2013-01-16 00:21:00,
2013-01-15 19:26:00,23.1,15.4,30.63,South,180,0.0,0.0,72,0.00,,,0.00,WUHU216HW,2013-01-16 00:26:00,
2013-01-15 19:31:00,23.1,15.8,30.63,South,180,0.0,0.0,73,0.00,,,0.00,WUHU216HW,2013-01-16 00:31:00,
2013-01-15 19:36:00,23.1,15.8,30.63,South,180,0.0,0.0,73,0.00,,,0.00,WUHU216HW,2013-01-16 00:36:00,
2013-01-15 19:41:00,23.1,15.8,30.63,South,180,0.0,0.0,73,0.00,,,0.00,WUHU216HW,2013-01-16 00:41:00,
2013-01-15 19:46:00,23.0,15.6,30.63,South,180,0.0,0.0,73,0.00,,,0.00,WUHU216HW,2013-01-16 00:46:00,
2013-01-15 19:51:00,23.0,15.6,30.63,South,180,0.0,0.0,73,0.00,,,0.00,WUHU216HW,2013-01-16 00:51:00,
2013-01-15 19:56:00,23.0,15.6,30.62,SW,225,0.0,0.0,73,0.00,,,0.00,WUHU216HW,2013-01-16 00:56:00,
2013-01-15 20:01:00,22.8,15.4,30.62,SW,225,0.0,0.0,73,0.00,,,0.00,WUHU216HW,2013-01-16 01:01:00,
2013-01-15 20:06:00,22.8,15.4,30.61,SW,225,0.0,0.0,73,0.00,,,0.00,WUHU216HW,2013-01-16 01:06:00,
2013-01-15 20:11:00,22.8,15.7,30.62,SW,225,0.0,0.0,74,0.00,,,0.00,WUHU216HW,2013-01-16 01:11:00,
2013-01-15 20:16:00,22.8,15.7,30.62,SW,225,0.0,0.0,74,0.00,,,0.00,WUHU216HW,2013-01-16 01:16:00,
2013-01-15 20:21:00,22.8,15.7,30.62,SW,225,0.0,0.0,74,0.00,,,0.00,WUHU216HW,2013-01-16 01:21:00,
2013-01-15 20:26:00,22.8,15.7,30.61,SW,225,0.0,0.0,74,0.00,,,0.00,WUHU216HW,2013-01-16 01:26:00,
2013-01-15 20:31:00,22.8,15.7,30.60,SW,225,0.0,0.0,74,0.00,,,0.00,WUHU216HW,2013-01-16 01:31:00,
2013-01-15 20:36:00,22.6,15.5,30.60,SW,225,0.0,0.0,74,0.00,,,0.00,WUHU216HW,2013-01-16 01:36:00,
2013-01-15 20:41:00,22.6,15.5,30.60,SW,225,0.0,0.0,74,0.00,,,0.00,WUHU216HW,2013-01-16 01:41:00,
2013-01-15 20:46:00,22.6,15.5,30.59,SW,225,0.0,0.0,74,0.00,,,0.00,WUHU216HW,2013-01-16 01:46:00,
2013-01-15 20:51:00,22.6,15.5,30.59,SW,225,0.0,0.0,74,0.00,,,0.00,WUHU216HW,2013-01-16 01:51:00,
2013-01-15 20:56:00,22.4,15.4,30.59,SW,225,0.0,0.0,74,0.00,,,0.00,WUHU216HW,2013-01-16 01:56:00,
2013-01-15 21:01:00,22.2,15.2,30.59,SW,225,0.0,0.0,74,0.00,,,0.00,WUHU216HW,2013-01-16 02:01:00,
2013-01-15 21:06:00,22.1,15.0,30.58,SW,225,0.0,0.0,74,0.00,,,0.00,WUHU216HW,2013-01-16 02:06:00,
2013-01-15 21:11:00,22.1,15.0,30.58,SW,225,0.0,0.0,74,0.00,,,0.00,WUHU216HW,2013-01-16 02:11:00,
2013-01-15 21:16:00,21.9,14.8,30.58,SW,225,0.0,0.0,74,0.00,,,0.00,WUHU216HW,2013-01-16 02:16:00,
2013-01-15 21:21:00,21.9,14.8,30.58,SW,225,0.0,0.0,74,0.00,,,0.00,WUHU216HW,2013-01-16 02:21:00,
2013-01-15 21:26:00,21.5,14.5,30.57,SW,225,0.0,0.0,74,0.00,,,0.00,WUHU216HW,2013-01-16 02:26:00,
2013-01-15 21:31:00,21.3,14.3,30.57,SW,225,0.0,0.0,74,0.00,,,0.00,WUHU216HW,2013-01-16 02:31:00,
2013-01-15 21:36:00,21.0,14.2,30.57,SW,225,0.0,0.0,75,0.00,,,0.00,WUHU216HW,2013-01-16 02:36:00,
2013-01-15 21:41:00,21.0,14.2,30.57,SW,225,0.0,0.0,75,0.00,,,0.00,WUHU216HW,2013-01-16 02:41:00,
2013-01-15 21:46:00,20.8,14.0,30.56,SW,225,0.0,0.0,75,0.00,,,0.00,WUHU216HW,2013-01-16 02:46:00,
2013-01-15 21:51:00,20.8,14.0,30.57,SW,225,0.0,0.0,75,0.00,,,0.00,WUHU216HW,2013-01-16 02:51:00,
2013-01-15 21:56:00,20.4,13.7,30.56,SW,225,0.0,0.0,75,0.00,,,0.00,WUHU216HW,2013-01-16 02:56:00,
2013-01-15 22:01:00,20.3,13.5,30.56,SW,225,0.0,0.0,75,0.00,,,0.00,WUHU216HW,2013-01-16 03:01:00,
2013-01-15 22:06:00,20.1,13.3,30.55,SW,225,0.0,0.0,75,0.00,,,0.00,WUHU216HW,2013-01-16 03:06:00,
2013-01-15 22:11:00,19.9,13.4,30.55,SW,225,0.0,0.0,76,0.00,,,0.00,WUHU216HW,2013-01-16 03:11:00,
2013-01-15 22:16:00,19.5,13.1,30.55,SW,225,0.0,0.0,76,0.00,,,0.00,WUHU216HW,2013-01-16 03:16:00,
2013-01-15 22:21:00,19.5,13.1,30.55,SW,225,0.0,0.0,76,0.00,,,0.00,WUHU216HW,2013-01-16 03:21:00,
2013-01-15 22:26:00,19.5,13.1,30.54,SW,225,0.0,0.0,76,0.00,,,0.00,WUHU216HW,2013-01-16 03:26:00,
2013-01-15 22:31:00,19.2,12.7,30.54,SW,225,0.0,0.0,76,0.00,,,0.00,WUHU216HW,2013-01-16 03:31:00,
2013-01-15 22:36:00,19.2,12.7,30.53,SW,225,0.0,0.0,76,0.00,,,0.00,WUHU216HW,2013-01-16 03:36:00,
2013-01-15 22:41:00,19.2,12.7,30.53,SW,225,0.0,0.0,76,0.00,,,0.00,WUHU216HW,2013-01-16 03:41:00,
2013-01-15 22:46:00,19.0,12.9,30.53,SW,225,0.0,0.0,77,0.00,,,0.00,WUHU216HW,2013-01-16 03:46:00,
2013-01-15 22:51:00,18.8,12.7,30.53,SW,225,0.0,0.0,77,0.00,,,0.00,WUHU216HW,2013-01-16 03:51:00,
2013-01-15 22:56:00,18.6,12.5,30.53,SW,225,0.0,0.0,77,0.00,,,0.00,WUHU216HW,2013-01-16 03:56:00,
2013-01-15 23:01:00,18.5,12.3,30.53,SW,225,0.0,0.0,77,0.00,,,0.00,WUHU216HW,2013-01-16 04:01:00,
2013-01-15 23:06:00,18.3,12.2,30.53,SW,225,0.0,0.0,77,0.00,,,0.00,WUHU216HW,2013-01-16 04:06:00,
2013-01-15 23:11:00,18.3,12.2,30.53,SW,225,0.0,0.0,77,0.00,,,0.00,WUHU216HW,2013-01-16 04:11:00,
2013-01-15 23:16:00,18.3,12.2,30.52,SW,225,0.0,0.0,77,0.00,,,0.00,WUHU216HW,2013-01-16 04:16:00,
2013-01-15 23:21:00,18.1,12.0,30.52,SW,225,0.0,0.0,77,0.00,,,0.00,WUHU216HW,2013-01-16 04:21:00,
2013-01-15 23:26:00,18.1,12.3,30.52,SW,225,0.0,0.0,78,0.00,,,0.00,WUHU216HW,2013-01-16 04:26:00,
2013-01-15 23:31:00,18.1,12.3,30.52,SW,225,0.0,0.0,78,0.00,,,0.00,WUHU216HW,2013-01-16 04:31:00,
2013-01-15 23:36:00,17.9,12.1,30.52,SW,225,0.0,0.0,78,0.00,,,0.00,WUHU216HW,2013-01-16 04:36:00,
2013-01-15 23:41:00,17.9,12.1,30.52,SW,225,0.0,0.0,78,0.00,,,0.00,WUHU216HW,2013-01-16 04:41:00,
2013-01-15 23:46:00,17.7,11.9,30.51,SW,225,0.0,0.0,78,0.00,,,0.00,WUHU216HW,2013-01-16 04:46:00,
2013-01-15 23:51:00,17.7,11.6,30.51,SW,225,0.0,0.0,77,0.00,,,0.00,WUHU216HW,2013-01-16 04:51:00,
2013-01-15 23:56:00,17.6,11.5,30.51,SW,225,0.0,0.0,77,0.00,,,0.00,WUHU216HW,2013-01-16 04:56:00,